Weather History for Szolnok, Hungary

Change the Weather History Date:

Monday, February 11, 2013

  Actual Average (LHBP) Record (LHBP)
Temperature  
Mean Temperature 22 °F -  
Max Temperature 28 °F 40 °F 57 °F (1998)
Min Temperature 17 °F 25 °F -4 °F (2012)
Degree Days  
Heating Degree Days 42    
Moisture  
Dew Point 22 °F    
Average Humidity 91    
Maximum Humidity 100    
Minimum Humidity 86    
Precipitation  
Precipitation 0.00 in - - ()
Sea Level Pressure  
Sea Level Pressure 29.94 in    
Wind  
Wind Speed 5 mph ()    
Max Wind Speed 7 mph    
Max Gust Speed -    
Visibility 2.4 miles    
Events Fog , Snow    
Averages and records for this station are not official NWS values.
T = Trace of Precipitation, MM = Missing Value Source: Averaged Metar Reports

Daily Weather History Graph

Daily Weather History Graph

Search for Another Location

Airport:

Trip Planner

Search our weather history database for the weather conditions in past years. The results will help you decide how hot, cold, wet, or windy it might be!

Date:

Astronomy

Feb. 11, 2013 Rise Set
Actual Time 6:50 AM CET 4:57 PM CET
Civil Twilight 6:18 AM CET 5:28 PM CET
Nautical Twilight 5:42 AM CET 6:04 PM CET
Astronomical Twilight 5:07 AM CET 6:40 PM CET
Moon 6:56 AM CET (2/11) 6:44 PM CET (2/11)
Length of Visible Light 11h 10m
Length of Day
10h 06m
New Moon, 2% of the Moon is Illuminated
Feb 11
New Moon
Feb 17
First Quarter
Feb 25
Full
Mar 4
Last Quarter
Mar 11
New

Hourly Weather History & Observations

Time (CET) Temp. Windchill Dew Point Humidity Pressure Visibility Wind Dir Wind Speed Gust Speed Precip Events Conditions
12:15 AM 26.6 °F 21.3 °F 24.8 °F 93% 29.92 in 3.1 mi SSW 4.5 mph - N/A   Mostly Cloudy
12:45 AM 26.6 °F 21.3 °F 23.0 °F 86% 29.92 in 3.1 mi South 4.5 mph - N/A   Mostly Cloudy
1:15 AM 26.6 °F 21.3 °F 24.8 °F 93% 29.92 in 3.7 mi SSW 4.5 mph - N/A   Mostly Cloudy
1:45 AM 26.6 °F 21.3 °F 24.8 °F 93% 29.92 in 3.7 mi South 4.5 mph - N/A   Mostly Cloudy
2:15 AM 26.6 °F - 24.8 °F 93% 29.92 in 3.1 mi SW 2.2 mph - N/A   Overcast
2:45 AM 26.6 °F - 24.8 °F 93% 29.92 in 3.1 mi SSW 2.2 mph - N/A   Overcast
3:15 AM 28.4 °F 23.4 °F 24.8 °F 86% 29.92 in 3.1 mi East 4.5 mph - N/A   Overcast
3:45 AM 26.6 °F - 24.8 °F 93% 29.92 in 3.1 mi ESE 2.2 mph - N/A   Overcast
4:15 AM 26.6 °F - 24.8 °F 93% 29.92 in 1.9 mi SE 2.2 mph - N/A   Overcast
4:45 AM 26.6 °F 21.3 °F 24.8 °F 93% 29.92 in 1.9 mi SSE 4.5 mph - N/A   Overcast
5:15 AM 26.6 °F 19.2 °F 24.8 °F 93% 29.92 in 1.9 mi SSW 6.7 mph - N/A   Overcast
5:25 AM - - - N/A% - 3.1 mi SSW 6.7 mph - N/A   Overcast
5:45 AM - - - N/A% - 3.1 mi South 6.7 mph - N/A   Overcast
6:15 AM 24.8 °F 19.2 °F 23.0 °F 93% 29.92 in 1.9 mi SSW 4.5 mph - N/A   Overcast
6:45 AM 24.8 °F 19.2 °F 23.0 °F 93% 29.95 in 0.5 mi South 4.5 mph - N/A Fog Light Freezing Fog
7:10 AM - - - N/A% - 0.9 mi South 6.7 mph - N/A   Mostly Cloudy
7:15 AM 23.0 °F 17.1 °F 23.0 °F 100% 29.95 in 0.3 mi South 4.5 mph - N/A Fog Light Freezing Fog
8:15 AM 23.0 °F 17.1 °F 23.0 °F 100% 29.95 in 0.9 mi South 4.5 mph - N/A   Overcast
8:45 AM - - - N/A% - 0.9 mi South 6.7 mph - N/A   Mostly Cloudy
9:15 AM 24.8 °F 17.1 °F 23.0 °F 93% 29.95 in 0.9 mi South 6.7 mph - N/A Snow Light Snow
9:54 AM 23.0 °F 14.9 °F 21.2 °F 93% 29.95 in 0.2 mi South 6.7 mph - N/A Fog Light Freezing Fog
10:15 AM 24.8 °F 19.2 °F 23.0 °F 93% 29.95 in 0.2 mi SSW 4.5 mph - N/A Fog Light Freezing Fog
10:35 AM - - - N/A% - 0.9 mi South 6.7 mph - N/A   Mostly Cloudy
10:45 AM 24.8 °F 19.2 °F 23.0 °F 93% 29.98 in 0.2 mi SSW 4.5 mph - N/A Fog Light Freezing Fog
11:15 AM 24.8 °F 19.2 °F 23.0 °F 93% 29.98 in 0.3 mi South 4.5 mph - N/A Fog Light Freezing Fog
11:45 AM - - - N/A% - 0.9 mi SSE 6.7 mph - N/A   Mostly Cloudy
12:15 PM 24.8 °F 19.2 °F 23.0 °F 93% 29.98 in 0.7 mi SSE 4.5 mph - N/A   Light Ice Crystals
1:15 PM 24.8 °F 19.2 °F 23.0 °F 93% 29.98 in 0.9 mi SSE 4.5 mph - N/A   Overcast
1:45 PM 24.8 °F 19.2 °F 23.0 °F 93% 29.98 in 1.1 mi SSE 4.5 mph - N/A   Overcast
2:15 PM 26.6 °F 19.2 °F 23.0 °F 86% 29.98 in 1.6 mi SSE 6.7 mph - N/A   Overcast
2:45 PM - - - N/A% - 3.1 mi SE 6.7 mph - N/A   Mostly Cloudy
3:15 PM 26.6 °F 21.3 °F 23.0 °F 86% 29.95 in 2.5 mi ESE 4.5 mph - N/A   Scattered Clouds
3:45 PM 24.8 °F 19.2 °F 21.2 °F 86% 29.95 in 2.5 mi ESE 4.5 mph - N/A   Scattered Clouds
4:15 PM 24.8 °F 17.1 °F 21.2 °F 86% 29.95 in 2.5 mi East 6.7 mph - N/A   Scattered Clouds
4:45 PM 23.0 °F 14.9 °F 19.4 °F 86% 29.95 in 2.5 mi East 6.7 mph - N/A   Scattered Clouds
5:15 PM 21.2 °F 12.7 °F 19.4 °F 93% 29.95 in 2.5 mi East 6.7 mph - N/A   Mostly Cloudy
5:31 PM 21.2 °F 12.7 °F 17.6 °F 86% 29.95 in 3.1 mi East 6.7 mph - N/A   Mostly Cloudy
5:45 PM - - - N/A% - 3.1 mi ENE 6.7 mph - N/A   Mist
6:15 PM 21.2 °F 12.7 °F 17.6 °F 86% 29.95 in 5.0 mi ENE 6.7 mph - N/A   Unknown
6:45 PM 21.2 °F 12.7 °F 17.6 °F 86% 29.95 in 5.0 mi East 6.7 mph - N/A   Unknown
7:15 PM 21.2 °F 15.0 °F 19.4 °F 93% 29.95 in 5.0 mi East 4.5 mph - N/A   Unknown
7:45 PM 21.2 °F 15.0 °F 17.6 °F 86% 29.95 in 5.0 mi East 4.5 mph - N/A   Unknown
8:15 PM 19.4 °F 12.9 °F 17.6 °F 93% 29.95 in 3.7 mi ENE 4.5 mph - N/A   Unknown
8:45 PM - - - N/A% - 6.2 mi ENE 6.7 mph - N/A   Mostly Cloudy
9:15 PM 17.6 °F 8.4 °F 15.8 °F 93% 29.92 in 3.7 mi ENE 6.7 mph - N/A   Unknown
9:45 PM 19.4 °F 10.6 °F 17.6 °F 93% 29.92 in 3.7 mi ENE 6.7 mph - N/A   Unknown
10:15 PM 21.2 °F 12.7 °F 19.4 °F 93% 29.92 in 3.7 mi NE 6.7 mph - N/A   Unknown
10:45 PM 19.4 °F 10.6 °F 17.6 °F 93% 29.92 in 3.7 mi ENE 6.7 mph - N/A   Unknown
11:45 PM - - - N/A% - 0.7 mi North - - N/A   Mostly Cloudy